Location: The Stocker AstroScience Center
(25.7579°N, 80.3725°W)
Time: 03:31:32
(UTC-04:00)

ISS - All Passes

Search period start: 01 September 2014 00:00
Search period end: 11 September 2014 00:00
Orbit: 414 x 419 km, 51.6° (Epoch: 01 September)

Date Brightness Start Highest point End Pass type
(mag) Time Alt. Az. Time Alt. Az. Time Alt. Az.
01 Sep - 08:56:36 10° S 08:59:33 30° SE 09:02:30 10° ENE daylight
01 Sep - 10:34:18 10° WNW 10:36:18 15° NW 10:38:18 10° N daylight
01 Sep - 17:09:30 10° NNE 17:10:52 12° NE 17:12:14 10° ENE daylight
01 Sep - 18:44:34 10° WNW 18:47:43 41° SW 18:50:52 10° SSE daylight
02 Sep - 08:09:13 10° SSE 08:11:09 15° SE 08:13:04 10° E daylight
02 Sep - 09:44:46 10° WSW 09:47:39 27° NW 09:50:33 10° NNE daylight
02 Sep - 17:55:54 10° NW 17:59:14 84° NE 18:02:33 10° SE daylight
03 Sep - 08:55:47 10° SW 08:59:03 57° NW 09:02:20 10° NNE daylight
03 Sep - 17:07:33 10° NNW 17:10:40 37° NE 17:13:46 10° ESE daylight
03 Sep - 18:46:21 10° WSW 18:47:04 11° SW 18:47:47 10° SW daylight
04 Sep - 08:07:14 10° SSW 08:10:30 61° SE 08:13:47 10° NE daylight
04 Sep - 16:19:30 10° N 16:22:00 19° NE 16:24:29 10° E daylight
04 Sep - 17:56:00 10° WNW 17:58:38 22° SW 18:01:15 10° S daylight
05 Sep - 07:19:09 10° S 07:22:00 27° SE 07:24:51 10° ENE daylight
05 Sep - 08:56:30 10° W 08:58:41 16° NW 09:00:54 10° N daylight
05 Sep - 15:32:18 10° NNE 15:33:14 11° NE 15:34:10 10° NE daylight
05 Sep - 17:06:54 10° NW 17:10:07 47° SW 17:13:19 10° SSE daylight
06 Sep - 06:31:53 10° SSE 06:33:30 13° SE 06:35:07 10° E visible
06 Sep - 08:06:59 10° WSW 08:09:58 30° NW 08:12:57 10° NNE daylight
06 Sep - 16:18:13 10° NW 16:21:32 73° NE 16:24:50 10° SE daylight
07 Sep - 07:18:00 10° SW 07:21:18 66° NW 07:24:36 10° NE daylight
07 Sep - 15:29:49 10° NNW 15:32:52 33° NE 15:35:53 10° ESE daylight
07 Sep - 17:07:57 10° W 17:09:18 12° SW 17:10:38 10° SSW daylight
08 Sep - 06:29:26 10° SSW 06:32:40 52° SE 06:35:54 10° NE visible
08 Sep - 08:09:09 10° NW 08:09:35 10° NW 08:10:01 10° NNW daylight
08 Sep - 14:41:46 10° N 14:44:05 18° NE 14:46:24 10° E daylight
08 Sep - 16:17:59 10° WNW 16:20:45 25° SW 16:23:31 10° S daylight
09 Sep - 05:41:21 10° S 05:44:04 23° SE 05:46:47 10° ENE visible
09 Sep - 07:18:20 10° W 07:20:43 18° NW 07:23:06 10° N daylight
09 Sep - 15:28:54 10° NW 15:32:09 55° SW 15:35:24 10° SSE daylight
10 Sep - 04:54:21 10° SE 04:55:30 11° SE 04:56:39 10° ESE visible
10 Sep - 06:28:51 10° WSW 06:31:55 34° NW 06:34:59 10° NNE visible
10 Sep - 14:40:10 10° NW 14:43:28 62° NE 14:46:45 10° SE daylight
